CW9871 Weather Reports


Display with metric or nautical units.
time (UTC)temp
F
wind
direction
speed
MPH
gust
MPH
rain 1hr
in
rain 24hr
in
rain mn
in
humidity
%
barometer
mb
20260509074603 34 143 0.0 1.0 0.00 0.06 0.00 91 1008.5
20260509073059 35 0 0.0 0.0 0.00 0.06 0.00 90 1008.5
20260509071600 35 0 0.0 1.0 0.00 0.06 0.00 90 1008.7
20260509070105 34 0 0.0 0.0 0.00 0.06 0.00 90 1008.8
20260509064603 35 0 0.0 0.0 0.00 0.06 0.00 90 1008.8
20260509063113 35 0 0.0 0.0 0.00 0.06 0.00 89 1009.2
20260509061619 36 0 0.0 1.0 0.00 0.06 0.00 90 1009.1
20260509060112 35 143 0.0 1.0 0.00 0.06 0.00 89 1009.4
20260509054556 35 0 0.0 1.0 0.00 0.06 0.00 88 1009.4
20260509053056 35 0 0.0 0.0 0.00 0.06 0.00 88 1009.6
20260509051559 35 0 0.0 0.0 0.00 0.06 0.00 88 1009.8
20260509050056 35 0 0.0 0.0 0.00 0.06 0.00 87 1009.8
20260509044553 35 0 0.0 0.0 0.00 0.08 0.00 87 1010.0
20260509043052 35 0 0.0 0.0 0.00 0.08 0.00 86 1010.2
20260509041601 36 0 0.0 0.0 0.00 0.08 0.00 85 1010.2
20260509040056 36 0 0.0 0.0 0.00 0.08 0.00 84 1010.2
20260509034555 37 0 0.0 0.0 0.00 0.08 0.08 84 1010.3
20260509033058 37 0 0.0 0.0 0.00 0.08 0.08 83 1010.1
20260509031601 37 0 0.0 0.0 0.00 0.08 0.08 82 1010.2
20260509030058 38 0 0.0 0.0 0.00 0.08 0.08 80 1010.3
20260509024553 39 0 0.0 0.0 0.00 0.08 0.08 79 1010.3
20260509023100 39 0 0.0 0.0 0.00 0.08 0.08 78 1010.4
20260509021557 39 0 0.0 0.0 0.00 0.08 0.08 76 1010.3
20260509020058 40 0 0.0 0.0 0.00 0.08 0.08 73 1010.3
20260509014556 41 0 0.0 0.0 0.00 0.08 0.08 71 1010.3
20260509013100 43 0 0.0 0.0 0.00 0.08 0.08 70 1010.2
20260509011555 44 0 0.0 0.0 0.00 0.08 0.08 66 1010.2
20260509010056 45 0 0.0 1.0 0.00 0.08 0.08 64 1009.9
20260509004606 46 0 0.0 1.0 0.00 0.08 0.08 60 1009.7
20260509003056 49 0 0.0 0.0 0.00 0.08 0.08 56 1009.7
20260509001554 52 0 0.0 0.0 0.00 0.08 0.08 50 1009.6
20260509000054 54 0 0.0 0.0 0.00 0.08 0.08 48 1009.5
20260508234557 56 0 0.0 0.0 0.00 0.08 0.08 47 1009.4
20260508233057 57 0 0.0 1.0 0.00 0.08 0.08 46 1009.3
20260508231600 58 0 0.0 2.0 0.00 0.08 0.08 44 1009.3
20260508230100 58 0 0.0 2.0 0.00 0.08 0.08 46 1009.4
20260508224558 58 0 0.0 3.0 0.00 0.08 0.08 44 1009.5
20260508223055 58 143 1.0 3.0 0.00 0.08 0.08 43 1009.3
20260508221559 59 115 2.0 4.0 0.00 0.08 0.08 42 1009.4
20260508220059 58 167 1.0 6.0 0.00 0.08 0.08 44 1009.4
20260508214557 58 176 2.0 5.0 0.00 0.08 0.08 46 1009.5
20260508213058 57 155 3.0 7.0 0.00 0.08 0.08 41 1009.6
20260508211557 58 105 2.0 6.0 0.00 0.08 0.08 48 1009.6
20260508210055 57 265 1.0 5.0 0.00 0.08 0.08 48 1009.6
20260508204554 57 105 2.0 6.0 0.00 0.08 0.08 45 1009.7
20260508203105 57 71 6.0 12.0 0.00 0.08 0.08 40 1009.9
20260508201603 57 39 4.0 8.0 0.00 0.08 0.08 40 1010.0
20260508200057 57 32 7.0 11.0 0.00 0.08 0.08 40 1010.1
20260508194554 57 117 6.0 11.0 0.00 0.08 0.08 39 1010.3
20260508193056 56 53 5.0 13.0 0.00 0.08 0.08 41 1010.5
20260508191558 56 342 2.0 11.0 0.00 0.08 0.08 50 1010.6
20260508190057 55 82 5.0 9.0 0.00 0.08 0.08 45 1010.8
20260508184556 55 94 4.0 7.0 0.00 0.08 0.08 49 1010.8
20260508183055 54 51 5.0 9.0 0.00 0.08 0.08 49 1010.9
20260508181608 53 81 6.0 14.0 0.00 0.08 0.08 50 1010.8
20260508180057 53 108 6.0 12.0 0.00 0.08 0.08 51 1011.1
20260508174608 53 75 6.0 13.0 0.00 0.08 0.08 54 1011.1
20260508173056 53 97 4.0 9.0 0.00 0.08 0.08 58 1011.4
20260508171557 51 50 3.0 8.0 0.00 0.08 0.08 60 1011.5
20260508170057 51 91 3.0 8.0 0.00 0.08 0.08 62 1011.5
20260508164600 50 109 5.0 9.0 0.00 0.08 0.08 65 1011.7
20260508163056 50 44 4.0 8.0 0.00 0.08 0.08 66 1011.8
20260508161557 48 117 5.0 9.0 0.00 0.08 0.08 67 1012.0
20260508160054 49 103 5.0 12.0 0.00 0.08 0.08 71 1012.0
20260508154603 49 46 6.0 14.0 0.00 0.08 0.08 69 1012.0
20260508153056 48 41 5.0 11.0 0.00 0.08 0.08 75 1012.0
20260508151556 47 73 5.0 9.0 0.00 0.08 0.08 74 1011.9
20260508150054 46 33 4.0 11.0 0.00 0.08 0.08 82 1011.6
20260508144555 45 40 5.0 12.0 0.00 0.08 0.08 87 1011.5
20260508143102 43 46 5.0 9.0 0.00 0.08 0.08 89 1011.8
20260508141616 42 85 4.0 8.0 0.01 0.08 0.08 89 1012.0
20260508140056 42 81 2.0 6.0 0.02 0.08 0.08 91 1012.1
20260508134618 41 111 2.0 6.0 0.03 0.08 0.08 91 1011.9
20260508133104 41 53 2.0 6.0 0.05 0.08 0.08 92 1012.0
20260508131558 41 99 2.0 5.0 0.04 0.07 0.07 91 1012.0
20260508130053 41 96 2.0 8.0 0.03 0.06 0.06 92 1012.0
20260508124600 40 100 4.0 15.0 0.02 0.05 0.05 92 1011.8
20260508123057 41 81 3.0 5.0 0.00 0.03 0.03 94 1011.5
20260508121602 40 74 0.0 1.0 0.00 0.03 0.03 94 1011.3
20260508120056 40 0 0.0 1.0 0.00 0.03 0.03 94 1011.0
20260508114555 40 74 0.0 1.0 0.00 0.03 0.03 94 1010.9
20260508113107 39 0 0.0 0.0 0.00 0.03 0.03 94 1010.9
20260508111603 39 74 0.0 1.0 0.00 0.03 0.03 93 1010.7
20260508110059 38 0 0.0 0.0 0.00 0.03 0.03 93 1010.6
20260508104559 38 74 0.0 1.0 0.00 0.03 0.03 93 1010.4
20260508103102 37 0 0.0 1.0 0.00 0.03 0.03 93 1010.5
20260508101557 37 0 0.0 0.0 0.00 0.03 0.03 92 1010.8
20260508100057 37 0 0.0 1.0 0.00 0.03 0.03 93 1010.6
20260508094556 36 0 0.0 1.0 0.00 0.03 0.03 92 1010.9
20260508093057 36 0 0.0 0.0 0.01 0.03 0.03 92 1010.9
20260508091557 36 0 0.0 1.0 0.01 0.03 0.03 93 1011.0
20260508090056 35 0 0.0 1.0 0.01 0.03 0.03 93 1010.9
20260508084555 35 0 0.0 0.0 0.01 0.03 0.03 91 1010.8
20260508083109 36 0 0.0 1.0 0.00 0.02 0.02 92 1010.7
20260508081603 36 0 0.0 1.0 0.00 0.02 0.02 92 1010.7